User: anonymous   Login
Location: Dulzura
(32.6442°N, 116.7814°W)
Time: 12:56:14
(UTC+00:00)
Language:

XW-2C - Orbit

View from above orbital plane
View from above orbital plane
View from above satellite
View from above satellite

Ground track
Ground track

The orbit data is extracted from the following two-line orbital elements,

1 40906U 15049H   23092.27369507  .00018833  00000-0  76823-3 0  9995
2 40906  97.4976  99.2561 0014424  73.5865 339.8148 15.24384060416824
Epoch (UTC): 02 April 2023 06:34:07
Eccentricity: 0.0014424
inclination: 97.4976°
perigee height: 483 km
apogee height: 502 km
right ascension of ascending node: 99.2561°
argument of perigee: 73.5865°
revolutions per day: 15.24384060
mean anomaly at epoch: 339.8148°
orbit number at epoch: 41682

The dashed part of the orbit path shows where the satellite is in the earth's shadow,  

DLR